Tracking 30918 objects as of 3-Jul-2025
HD Live streaming from Space Station
objects crossing your sky now

THORAD DELTA 1 DEB

Track THORAD DELTA 1 DEB now!
10-day predictions


NORAD ID: 8175
Int'l Code: 1974-089AR
Perigee: 1,249.0 km
Apogee: 1,569.8 km
Inclination: 102.6 °
Period: 113.8 minutes
Semi major axis: 7780 km
RCS: 0.0392 m2 (small)
Launch date: November 15, 1974
Source: United States (US)
Launch site: AIR FORCE WESTERN TEST RANGE (AFWTR)

Note: This is SATELLITE DEBRIS
Your satellite tracking list
COSMOS 2251 DEB
Track 1 satellite(s)




NASA's NSSDC Master Catalog

Two Line Element Set (TLE):
1  8175U 74089AR  25183.68989588  .00006217  00000-0  31051-1 0  9996
2  8175 102.6376  91.4572 0206200 335.8892  79.6628 12.65029871285491
Source of the keplerian elements: AFSPC